Regional Weather Roundup
Issued by NWS Little Rock, AR

Home | Current Version | Previous Version | Text Only | Print | Product List | Glossary On
Versions: 1 2 3 4 5 6 7 8 9 10 11 12 13 14 15 16 17 18 19 20 21 22 23 24 25 26 27 28 29 30 31 32
000
ASUS44 KLZK 300205
RWRLZK

WEATHER ROUNDUP FOR ARKANSAS
NATIONAL WEATHER SERVICE LITTLE ROCK AR
900 PM CDT WED MAR 29 2017

NOTE: "FAIR" INDICATES FEW OR NO CLOUDS BELOW 12,000 FEET WITH NO
SIGNIFICANT WEATHER AND/OR OBSTRUCTIONS TO VISIBILITY.

ARZ001-003-010-029-300300-
NORTHWEST ARKANSAS

CITY           SKY/WX    TMP DP  RH WIND       PRES   REMARKS
FAYETTEVILLE   CLEAR     65  58  78 SE3       29.69R
FORT SMITH     PTCLDY    71  56  58 S8        29.66F
HARRISON       MOCLDY    63  60  90 S7        29.72R
BENTONVILLE    PTCLDY    66  54  63 W13       29.69R
ROGERS         CLEAR     65  57  75 SE9       29.69S
SILOAM SPGS    PTCLDY    63  52  67 W13       29.70R
HIGHFILL       PTCLDY    63  54  72 W13       29.69R
SPRINGDALE     CLEAR     64  57  77 S6        29.70S
$$

ARZ004-005-016-300300-
NORTH CENTRAL ARKANSAS

CITY           SKY/WX    TMP DP  RH WIND       PRES   REMARKS
BATESVILLE     CLOUDY    75  57  53 SE13      29.74S
FLIPPIN        CLOUDY    66  57  72 S3        29.69R
MTN HOME       TSTM      65  63  93 SW13G22   29.71R FOG
$$

ARZ040-041-300300-
WEST CENTRAL ARKANSAS

CITY           SKY/WX    TMP DP  RH WIND       PRES   REMARKS
MENA           MOCLDY    72  68  88 SW3       29.71F
MOUNT IDA      PTCLDY    70  62  76 VRB6      29.69F
$$

ARZ009-017-025-026-028-300300-
NORTHEAST ARKANSAS

CITY           SKY/WX    TMP DP  RH WIND       PRES   REMARKS
CORNING        FAIR      73  59  60 S14G20    29.77S
JONESBORO      CLOUDY    71  59  65 S9        29.78S
NEWPORT        CLOUDY    71  61  70 SE14      29.76S
WALNUT RIDGE   MOCLDY    72  57  60 S13       29.76F
BLYTHEVILLE    CLOUDY    71  58  63 S8        29.81R
$$

ARZ022-023-033-042-044-300300-
CENTRAL ARKANSAS

CITY           SKY/WX    TMP DP  RH WIND       PRES   REMARKS
LITTLE ROCK    CLOUDY    72  62  71 S7        29.72F
N LITTLE ROCK    N/A     73  62  68 S9        29.71F
JACKSONVILLE   CLOUDY    75  62  65 SE8       29.72F
CONWAY           N/A     73  63  68 SE12G18   29.69F
SEARCY         CLOUDY    73  63  70 S12       29.75F
HOT SPRINGS    CLOUDY    72  63  73 CALM      29.73F
RUSSELLVILLE   MOCLDY    67  63  87 W3        29.71F
$$

ARZ036-300300-
EAST ARKANSAS

CITY           SKY/WX    TMP DP  RH WIND       PRES   REMARKS
WEST MEMPHIS   CLOUDY    70  59  68 S7        29.80S
$$

ARZ050-053-066-070-073-300300-
SOUTHWEST ARKANSAS

CITY           SKY/WX    TMP DP  RH WIND       PRES   REMARKS
ARKADELPHIA    LGT RAIN  70  66  87 S8        29.72F
CAMDEN         CLOUDY    73  61  64 S6        29.74F
TEXARKANA      CLOUDY    69  65  86 S6        29.72S
EL DORADO      CLOUDY    72  62  71 S12       29.76S
DE QUEEN       TSTM      70  65  84 SW14      29.68F
$$

ARZ056-057-069-300300-
SOUTHEAST ARKANSAS

CITY           SKY/WX    TMP DP  RH WIND       PRES   REMARKS
PINE BLUFF     CLOUDY    73  63  70 SE8       29.74F
STUTTGART      CLOUDY    73  57  56 SE12      29.76F
MONTICELLO     LGT RAIN  73  63  70 SW25G37   29.80R

$$






USA.gov is the U.S. government's official web portal to all federal, state and local government web resources and services.